www.pogodaiklimat.ru

Погода и климат >> Архив погоды >> Россия >> Якутия >> Среднеколымск


АРХИВ ПОГОДЫ в Среднеколымске

Время (UTC), дата Ветер
(напр.,м/с)
 
Видим.   Явления Облачность Т
(С)
Тd
(С)
f
(%)
Тe
(С)
Тes
(С)
Комфортность P
(гПа)
Po
(гПа)
Тmin
(С)
Tmax
(С)
R
(мм)
R24
(мм)
S
(см)
21 11.07 Ю 2 50 км 4/0
[Ci fib]
+23.1 +16.9 68 +28 +32 душно 1006.7 1003.1 +18.5
00 12.07 ЮЗ 2 50 км 8/1 1000 м
[Cu med, cong Ci fib]
+28.1 +13.9 42 +30 +38 жарко 1006.7 1003.2
03 12.07 З 3 50 км 8/4 1000 м
[Cb cap Ci fib]
+29.5 +14.1 39 +31 +36 жарко 1006.6 1003.1
06 12.07 З 3 50 км 8/4 1000 м
[Cu med, cong Ci fib]
+29.0 +14.1 40 +31 +33 жарко 1006.7 1003.2
09 12.07 С 3 50 км 10/4 1000 м
[Cb cap Ci fib]
+24.9 +16.3 59 +28 +29 жарко 1007.8 1004.2 +30.1
12 12.07 С 3 50 км 10/0
[Ci fib]
+20.9 +16.5 76 +25 +25 комфорт 1009.2 1005.6
15 12.07 С 1 50 км 10/0
[Ci fib]
+17.0 +15.6 91 +18 +18 1009.5 1005.8
18 12.07 штиль 0 н/о {туман} н/о +16.1 +15.2 94 +16 +17 1009.8 1006.1
21 12.07 Ю 1 50 км {туман} 10/3 300 м
[St Ci fib]
+18.6 +15.9 84 +21 +24 комфорт 1009.8 1006.1 +14.1
00 13.07 В 1 50 км {туман} 6/0
[Ci fib]
+23.2 +16.1 64 +28 +38 душно 1008.7 1005.1
03 13.07 В 2 50 км 10/1 1000 м
[Cu med, cong Ci fib]
+26.4 +14.4 48 +29 +36 жарко 1007.1 1003.6
06 13.07 Ю 2 50 км 10/3 1000 м
[Cu hum Ci fib]
+27.6 +14.9 46 +30 +33 жарко 1006.1 1002.6
09 13.07 Ю 1 50 км 10/3 1000 м
[Cb cap Ci fib]
+27.1 +16.1 51 +30 +31 душно 1005.8 1002.3 +28.3
12 13.07 В 2 50 км 10/4 600 м
[Cb cap Ci fib]
+22.7 +17.9 74 +28 +28 душно 1006.4 1002.8
15 13.07 СВ 1 50 км 10/8 600 м
[Cb cap Ci fib]
+20.4 +17.5 83 +25 +25 комфорт 1006.6 1003.0
18 13.07 С 1 20 км ливневой дождь, в посл. час гроза 10/8 600 м
[Cb cap Ci fib]
+18.8 +16.8 88 +21 +21 комфорт 1006.8 1003.2
21 13.07 СВ 2 50 км {ливн. осадки} 10/5 600 м
[Cb cap Ci fib]
+19.7 +19.1 96 +23 +25 комфорт 1006.6 1003.0 +18.7 8
00 14.07 СВ 3 50 км {ливн. осадки} 10/0
[Ci fib]
+23.3 +18.4 74 +29 +36 душно 1005.6 1002.0
03 14.07 СВ 3 50 км 4/1 600 м
[Cu hum Ci fib]
+26.1 +18.4 63 +31 +38 очень
душно
1004.0 1000.5
06 14.07 СВ 1 50 км 6/1 600 м
[Cu med, cong Ci fib]
+27.5 +17.9 56 +32 +37 очень
душно
1002.8 999.3
09 14.07 СВ 2 50 км 10/0
[Ci fib]
+26.1 +18.4 63 +31 +32 очень
душно
1001.8 998.3 +27.5
12 14.07 СВ 2 50 км 10/0
[Ac trans Ci fib]
+22.0 +18.5 81 +27 +27 душно 1001.4 997.8
15 14.07 СВ 2 50 км 10/0
[Ac trans Ci fib]
+17.8 +15.9 89 +18 +18 1000.8 997.2
18 14.07 СВ 2 10 км слаб. ливневой дождь 10/8 1000 м
[Cb cap Ac trans]
+13.4 +11.5 88 +13 +13 1003.5 999.8
21 14.07 СЗ 3 10 км слаб. ливневой дождь 10/10 200 м
[Cb cap]
+11.6 +11.2 97 +10 +10 1006.2 1002.5 +11.6 5
00 15.07 С 4 20 км слаб. морось 10/10 300 м
[St]
+9.4 +8.4 93 +6 +6 1008.3 1004.5 +9.4
03 15.07 СЗ 2 50 км {морось} 10/10 300 м
[Cb cap]
+12.0 +7.9 76 +11 +11 1009.2 1005.5
06 15.07 С 1 50 км {морось} 10/10 600 м
[Cb cap]
+12.9 +8.7 76 +13 +13 1009.3 1005.6
09 15.07 З 2 50 км 10/8 600 м
[Cb cap Ci fib]
+14.6 +9.1 70 +14 +15 1009.2 1005.5 +14.6 0.0
12 15.07 З 1 50 км {ливн. осадки} 10/8 300 м
[Cb cap Ci fib]
+12.2 +11.3 94 +12 +12 1009.7 1006.0
15 15.07 СЗ 1 50 км 10/8 300 м
[Cb cap Ci fib]
+10.0 +9.2 95 +9 +9 1010.0 1006.2
18 15.07 ЮЗ 1 50 км 10/0
[Ac trans Ci fib]
+8.6 +8.0 96 +8 +8 1009.9 1006.1
21 15.07 ЮЗ 3 50 км 10/4 600 м
[Cb cap Ci fib]
+13.2 +6.1 62 +12 +14 1009.4 1005.7 +7.7 0.0
00 16.07 З 5 50 км 10/10 1000 м
[Cb cap]
+14.3 +7.4 63 +13 +13 1009.1 1005.4
03 16.07 ЮЗ 4 50 км 10/6 1000 м
[Cb cap Ci fib]
+13.6 +6.1 60 +12 +14 1008.2 1004.5
06 16.07 З 3 50 км 10/8 1000 м
[Cb cap Ci fib]
+15.8 +5.9 52 +15 +16 1007.4 1003.7
09 16.07 СЗ 3 50 км 10/8 600 м
[Sc Ci fib]
+13.5 +5.9 60 +12 +13 1008.1 1004.4 +17.2
12 16.07 З 2 50 км 10/8 1000 м
[Cb cap Ci fib]
+11.3 +6.4 72 +10 +10 1008.6 1004.8
15 16.07 СЗ 2 50 км 10/10 1000 м
[Cb cap]
+10.0 +7.9 87 +8 +8 1008.8 1005.0
18 16.07 СЗ 1 50 км 10/10 600 м
[Cb cap]
+9.6 +6.6 82 +9 +9 1008.4 1004.6
21 16.07 З 1 50 км 10/8 600 м
[Cb cap Ci fib]
+10.1 +5.3 72 +10 +11 1008.2 1004.4 +9.5
00 17.07 З 4 50 км 10/10 600 м
[Cb cap]
+12.5 +4.4 58 +11 +11 1007.5 1003.8
03 17.07 З 2 50 км 10/9 1000 м
[Cb cap Ci fib]
+14.1 +4.1 51 +14 +15 1006.5 1002.8
06 17.07 СЗ 3 50 км 10/6 1000 м
[Cb cap Ac trans Ci fib]
+14.8 +5.3 53 +14 +15 1006.4 1002.7
09 17.07 СЗ 2 50 км 10/9 1000 м
[Cb cap Ci fib]
+13.0 +4.5 56 +12 +13 1005.9 1002.2 +15.3
12 17.07 С 2 50 км 10/8 1000 м
[Cb cap Ci fib]
+10.6 +4.9 68 +9 +9 1014.4 1002.6
15 17.07 СВ 2 50 км 10/10 1000 м
[Cb cap]
+10.6 +5.4 70 +9 +9 1006.5 1002.7
18 17.07 СВ 3 50 км 10/8 600 м
[Cb cap Ac trans]
+9.4 +5.7 78 +7 +7 1006.8 1003.0
21 17.07 СВ 4 50 км 10/6 600 м
[Cb cap Ac trans]
+9.8 +4.2 68 +7 +8 1007.4 1003.6 +9.2
00 18.07 СВ 4 50 км 10/8 1000 м
[Cb cap Ac trans]
+10.9 +3.9 62 +9 +9 1007.7 1003.9
03 18.07 СВ 4 50 км 10/8 1000 м
[Cb cap Ac trans]
+11.0 +3.0 58 +9 +9 1008.0 1004.2
06 18.07 СВ 5-11
{11}
50 км 10/6 1000 м
[Cb cap Ac trans Ci fib]
+10.6 +2.7 58 +8 +9 1008.6 1004.8
09 18.07 С 5-11
{11}
50 км 10/4 1000 м
[Cb cap Ac trans Ci fib]
+9.6 +2.8 63 +7 +7 1009.8 1006.0 +12.1
12 18.07 СВ 5
{12}
50 км 10/3 1000 м
[Cb cap Ac trans Ci fib]
+8.3 +2.3 66 +5 +5 1011.6 1007.8
15 18.07 СВ 2 50 км 10/9 1000 м
[Cb cap Ci fib]
+6.6 +2.8 77 +4 +4 1013.1 1009.2
18 18.07 С 4 50 км 10/9 1000 м
[Cb cap Ci fib]
+6.4 +1.4 70 +3 +3 1013.7 1009.8

 

Местоположение метеостанции Среднеколымск (Якутия, Россия): широта 67.45 долгота 153.70 высота над уровнем моря 21 м.

В архиве по умолчанию представлена погода в Среднеколымске за последнюю неделю. Архивные данные за месяц целиком и за предыдущие месяцы, начиная с января 2011 года, Вы можете получить, выбрав интересующий диапазон дат из раскрывающегося списка и нажав кнопку "Ввод!".


*Определитесь, кто Вы:
робот инопланетянин человек

Внимание! Время в таблицах - всемирное. Для получения местного времени необходимо прибавить поправку, которая равна 11 ч.

Смотрите также архив погоды в соседних городах и на ближайших метеорологических станциях:

Погода в Андрюшкино (Якутия, Россия) (194 км)
Погода в Зырянке (Якутия, Россия) (228 км)
Погода в Колымской (Якутия, Россия) (248 км)
Погода в Коркодоне (Магаданская область, Россия) (300 км)
Погода в Константиновской (Чукотка, Россия) (320 км)
Погода в Белой Горе (Якутия, Россия) (335 км)
Погода в Анюйске (Чукотка, Россия) (341 км)
Погода в Черском (Якутия, Россия) (346 км)
Погода в Омолоне (Чукотка, Россия) (391 км)
Погода в Балыгычане (Магаданская область, Россия) (394 км)

Пояснения к столбцам:

Ветер - указаны скорость ветра в м/с - средняя за 10 мин, порывы в срок и между сроками (в фигурных скобках) и направление, откуда дует ветер: С - северный, СВ - северо-восточный, В - восточный, ЮВ - юго-восточный, Ю - южный, ЮЗ - юго-западный, З - западный, СЗ - северо-западный.
Видимость - горизонтальная дальность видимости в метрах или километрах. При видимости от 1 до 10 км при отсутствии осадков обычно наблюдается дымка, при ухудшении видимости до 1 км и менее - туман. В сухую погоду видимость может ухудшаться дымом, пылью или мглою.
Явления - указаны атмосферные явления, наблюдавшиеся в срок или в последний час перед сроком; фигурными скобками обозначены явления, наблюдавшиеся между сроками (за 1-3 часа до срока); квадратными скобками обозначены град или гололедные отложения с указанием их диаметра в мм.
Облачность - указаны через наклонную черту общая и нижняя облачность в баллах и высота нижней границы облаков в метрах; квадратными скобками обозначены формы облаков: Ci - перистые, Cs - перисто-слоистые, Cc - перисто-кучевые, Ac - высококучевые, As - высокослоистые, Sc - слоисто-кучевые, Ns - слоисто-дождевые, Cu - кучевые, Cb - кучево-дождевые. Подробнее классификацию облаков см. в Атласе облаков (PDF).
T - Температура воздуха - температура, измеренная на высоте 2 м над землей.
Td - Температура точки росы - температура, при понижении до которой содержащийся в воздухе водяной пар достигнет насыщения.
f - Относительная влажность воздуха - влажноcть воздуха, измеренная на высоте 2 м над землей.
Te - Эффективная температура - температура, которую ощущает одетый по сезону человек в тени. Характеристика душности погоды. При расчете учитывается влияние влажности воздуха и скорости ветра на теплоощущения человека.
Tes - Эффективная температура на солнце - температура, которую ощущает человек, с поправкой на солнечный нагрев. Характеристика знойности погоды. Зависит от высоты солнца над горизонтом, облачности и скорости ветра. Ночью, в пасмурную погоду, а также при ветре 12 м/с и более поправка равна нулю.
P - Атмосферное давление - приведенное к уровню моря атмосферное давление.
Po - Атмосферное давление - измеренное на уровне метеостанции атмосферное давление.
Tmin - Минимальная температура - минимум температуры воздуха на высоте 2 м над землей.
Tmax - Максимальная температура - максимум температуры воздуха на высоте 2 м над землей.
R - Количество осадков - Количество выпавших осадков за период времени, мм. При наведении курсора мыши на число - период времени, за который выпало указанное количество осадков.
R24 - Количество осадков - Количество выпавших осадков за 24 часа, мм.
S - Снежный покров - Высота снежного покрова, см. При наведении курсора мыши на число - состояние снежного покрова и степень покрытия местности в баллах.